Location: Unspecified
(29.9680°N, 0.0000°E)
Time: 00:17:52
(UTC+00:00)

Explorer 7 - Pass Details

Date: 01 July 2019
Orbit: 485 x 680 km, 50.3° (Epoch: 19 July)

Event Time Altitude Azimuth Distance (km) Brightness Sun altitude
Rises 04:20:53 0° 230° (SW) 2,558 - -8.6°
Reaches altitude 10° 04:23:01 10° 232° (SW) 1,696 - -8.2°
Exits shadow 04:23:06 11° 232° (SW) 1,662 8.6 -8.2°
Maximum altitude 04:26:50 71° 316° (NW) 548 6.8 -7.5°
Drops below altitude 10° 04:30:53 10° 41° (NE) 1,794 10.9 -6.8°
Sets 04:33:12 0° 44° (NE) 2,722 12.2 -6.4°
